[[{"header":{"parameterUnit":"m.s-1","parameterCategory":1,"la1":30.2991,"la2":30.254,"lo1":-89.0895,"lo2":-89.0444,"dy":0.0017,"dx":0.0017,"nx":28,"ny":28,"refTime":"2023-10-23T03:00:00:Z","depth":0,"parameterNumber":2,"parameterNumberName":"U-component_of_WINDS"},"data":[0,0,0,0,0,0,0,0,0,0,0,0,0,0,0,0,0,0,0,0,0,0,0,0,0,0,0,0,0,0,0,0,0,0,0,0,0,0,0,0,0,0,0,0,0,0,0,0,0,0,0,0,0,0,0,0,0,0,-4.7738,-4.7738,0,-4.7761,-4.7761,-4.7761,-4.7636,-4.7632,-4.7629,-4.7625,-4.7652,-4.7656,-4.766,0,0,0,0,0,0,0,0,0,0,0,0,0,-4.7591,-4.7594,-4.7738,-4.7738,-4.7739,-4.7761,-4.7761,-4.7761,-4.7637,-4.7632,-4.7628,-4.7624,-4.7651,-4.7656,-4.766,0,0,0,0,0,0,0,0,0,0,0,0,0,-4.7639,-4.7596,-4.7738,-4.7679,-4.7674,-4.7761,-4.7761,-4.7761,-4.7638,-4.7632,-4.7627,-4.7622,-4.7649,-4.7655,-4.7661,-4.7807,0,0,-4.768,-4.7682,0,0,0,0,0,0,0,0,-4.7636,-4.7644,-4.7687,-4.7683,-4.7678,-4.769,-4.7719,-4.7777,-4.7639,-4.7652,-4.7625,-4.7619,-4.7669,-4.7673,-4.769,-4.7808,-4.7809,-4.768,-4.7684,-4.7687,-4.7688,0,0,0,0,0,0,0,-4.7633,-4.7643,-4.7747,-4.7688,-4.7682,-4.7653,-4.7654,-4.7729,-4.7691,-4.765,-4.7641,-4.7645,-4.7666,-4.7684,-4.7689,-4.781,-4.768,-4.7686,-4.7689,-4.7692,-4.8051,-4.8056,0,0,0,0,0,0,-4.7637,-4.7641,-4.7746,-4.7748,-4.7643,-4.766,-4.7661,-4.7692,-4.7689,-4.7684,-4.765,-4.7639,-4.7676,-4.7682,-4.769,-4.786,-4.7687,-4.7692,-4.7696,-4.8045,-4.8052,-4.8058,0,0,0,0,0,0,-4.7634,-4.7648,-4.7745,-4.7692,-4.7702,-4.7668,-4.7704,-4.7695,-4.7713,-4.7689,-4.7682,-4.7675,-4.7672,-4.7681,-4.7779,-4.786,-4.7695,-4.7701,-4.8038,-4.8047,-4.8055,-4.8203,0,0,0,0,0,0,-4.7631,-4.7647,-4.7701,-4.7694,-4.7705,-4.7833,-4.7709,-4.7699,-4.7723,-4.771,-4.7711,-4.7706,-4.7669,-4.777,-4.7785,-4.7865,-4.7705,-4.8031,-4.8042,-4.8052,-4.8191,-4.8216,-4.8237,0,0,0,0,0,-4.7626,-4.7742,-4.7704,-4.7718,-4.7771,-4.7838,-4.7844,-4.7798,-4.773,-4.7785,-4.777,-4.7706,-4.7849,-4.7781,-4.7797,-4.788,-4.8025,-4.8039,-4.8052,-4.818,-4.8211,-4.8237,0,0,0,0,0,0,-4.776,-4.774,-4.7698,-4.7815,-4.7829,-4.7816,-4.7883,-4.7831,-4.7865,-4.7851,-4.7794,-4.7795,-4.7903,-4.7901,-4.7826,-4.8022,-4.7926,-4.7943,-4.8018,-4.8047,-4.807,-4.8067,-4.771,0,0,0,0,0,-4.7803,-4.7857,-4.7838,-4.7943,-4.7952,-4.7917,-4.7944,-4.7907,-4.792,-4.7925,-4.7917,-4.7933,-4.7982,-4.8015,-4.8058,-4.8191,-4.819,-4.8256,-4.828,-4.8299,-4.8314,-4.8385,-4.8414,-4.8102,-4.8102,-4.8102,0,0,-4.7893,-4.7889,-4.7926,-4.797,-4.7976,-4.8035,-4.7923,-4.7989,-4.8033,-4.7936,-4.8027,-4.8023,-4.8037,-4.8153,-4.8204,-4.8155,-4.84,-4.8316,-4.8331,-4.8335,-4.8402,-4.8431,-4.8458,-4.8111,-4.8109,-4.8108,0,0,-4.8086,-4.8088,-4.8176,-4.8186,-4.8197,-4.8173,-4.8195,-4.8191,-4.8184,-4.8275,-4.8203,-4.8256,-4.834,-4.8353,-4.8371,-4.8573,-4.8516,-4.859,-4.871,-4.8781,-4.8805,-4.8827,-4.8899,-4.8926,-4.8605,-4.8605,-4.8605,0,-4.8196,-4.828,-4.8228,-4.83,-4.8322,-4.8238,-4.8327,-4.8339,-4.8365,-4.8383,-4.8328,-4.8433,-4.8437,-4.8555,-4.8605,-4.8623,-4.8646,-4.8588,-4.8806,-4.8827,-4.8846,-4.8915,-4.8942,-4.8614,-4.8613,-4.8612,-4.8611,0,-4.8415,-4.8475,-4.8545,-4.8571,-4.8602,-4.8682,-4.8645,-4.8682,-4.8644,-4.8627,-4.8722,-4.8724,-4.8767,-4.8793,-4.8756,-4.8908,-4.8877,-4.8815,-4.8717,-4.8886,-4.8949,-4.8975,-4.8626,-4.8623,-4.8621,-4.8618,0,0,-4.8689,-4.8688,-4.8715,-4.8726,-4.8734,-4.878,-4.8859,-4.89,-4.8933,-4.8955,-4.902,-4.9095,-4.9038,-4.9059,-4.9024,-4.9086,-4.9247,-4.9017,-4.9016,-4.9059,-4.9415,-4.946,-4.9491,-4.9211,-4.9215,-4.9219,-4.9414,0,-4.8877,-4.9008,-4.8966,-4.91,-4.9156,-4.9078,-4.9147,-4.916,-4.9148,-4.9195,-4.9181,-4.9235,-4.9157,-4.9169,-4.9227,-4.9215,-4.9318,-4.9201,-4.9271,-4.9274,-4.9268,-4.9524,-4.9571,-4.9754,-4.9438,-4.9442,-4.9445,0,-4.9113,-4.9144,-4.9283,-4.9283,-4.9305,-4.9367,-4.9402,-4.9448,-4.9463,-4.945,-4.9475,-4.9428,-4.9507,-4.941,-4.9519,-4.9441,-4.9468,-4.9467,-4.9473,-4.9476,-4.9368,-4.9533,-4.9811,-4.9838,-4.9483,-4.948,-4.9478,0,-4.9299,-4.9375,-4.9469,-4.9481,-4.9484,-4.953,-4.9533,-4.9543,-4.9571,-4.9603,-4.9621,-4.9663,-4.9686,-4.972,-4.9687,-4.9619,-4.9801,-4.9702,-4.9793,-4.9794,-4.9832,-4.983,-5.0118,-4.9853,-4.9853,-4.9852,-4.9852,0,-4.9512,-4.96,-4.9552,-4.9609,-4.9707,-4.9659,-4.9757,-4.9753,-4.9763,-4.9819,-4.9756,-4.9811,-4.9764,-4.9815,-4.979,-4.9885,-4.9896,-4.9888,-4.988,-4.9892,-4.9893,-4.9908,-4.9894,-4.986,-4.9858,-4.9857,-4.9855,0,-4.9734,-4.9705,-4.9802,-4.9798,-4.9799,-4.9871,-4.9868,-4.9922,-4.9906,-4.9978,-4.9993,-4.9969,-5.0026,-4.9997,-5.0057,-5.004,-5.0162,-5.0138,-5.0156,-5.0149,-5.0242,-5.0233,-5.0547,-5.0586,-5.0298,-5.0301,-5.0304,0,-4.987,-4.9936,-4.994,-4.9972,-4.998,-5.0034,-5.0063,-5.002,-5.0053,-5.0077,-5.0129,-5.0181,-5.0219,-5.0316,-5.0304,-5.0351,-5.0326,-5.0434,-5.0333,-5.0344,-5.0327,-5.0323,-5.0329,-5.0453,-5.0456,-5.0459,-5.0461,0,-5.0116,-5.0099,-5.0142,-5.0182,-5.0218,-5.0247,-5.0271,-5.0302,-5.026,-5.0301,-5.0358,-5.0389,-5.0451,-5.0504,-5.0545,-5.055,-5.05,-5.0494,-5.0517,-5.0529,-5.0537,-5.0534,-5.021,-5.0486,-5.0483,-5.0482,-5.048,-5.0479,-5.0298,-5.0354,-5.0365,-5.0416,-5.043,-5.0455,-5.0505,-5.0497,-5.0543,-5.0589,-5.0562,-5.063,-5.0647,-5.0696,-5.071,-5.0764,-5.0721,-5.0755,-5.0763,-5.0772,-5.0784,-5.0531,-5.0771,-5.077,-5.077,-5.0769,-5.0769,0,-5.054,-5.0544,-5.0591,-5.0627,-5.0668,-5.0617,-5.0642,-5.068,-5.074,-5.0759,-5.0799,-5.0867,-5.0919,-5.0914,-5.0962,-5.1006,-5.0985,-5.102,-5.1016,-5.1018,-5.082,-5.0794,-5.1037,-5.1037,-5.1037,-5.1037,-5.1037,-5.1037,-5.067,-5.0761,-5.0747,-5.0845,-5.0849,-5.0914,-5.0933,-5.0956,-5.0971,-5.1049,-5.1092,-5.1088,-5.1098,-5.1147,-5.1193,-5.1191,-5.1211,-5.1255,-5.1244,-5.1058,-5.1032,-5.1006,-5.0982,-5.1261,-5.1261,-5.1438,-5.1439,-5.1441]},{"header":{"parameterUnit":"m.s-1","parameterCategory":1,"la1":30.2991,"la2":30.254,"lo1":-89.0895,"lo2":-89.0444,"dy":0.0017,"dx":0.0017,"nx":28,"ny":28,"refTime":"2023-10-23T03:00:00:Z","depth":0,"parameterNumber":3,"parameterNumberName":"V-component_of_WINDS"},"data":[0,0,0,0,0,0,0,0,0,0,0,0,0,0,0,0,0,0,0,0,0,0,0,0,0,0,0,0,0,0,0,0,0,0,0,0,0,0,0,0,0,0,0,0,0,0,0,0,0,0,0,0,0,0,0,0,0,0,0.6097,0.6096,0,0.5997,0.5996,0.5995,0.59,0.5899,0.5898,0.5897,0.5789,0.5787,0.5785,0,0,0,0,0,0,0,0,0,0,0,0,0,0.6205,0.6203,0.6097,0.6096,0.6095,0.5997,0.5996,0.5994,0.59,0.5899,0.5898,0.5896,0.5789,0.5787,0.5785,0,0,0,0,0,0,0,0,0,0,0,0,0,0.6137,0.6203,0.6097,0.6036,0.603,0.5997,0.5996,0.5994,0.5901,0.5899,0.5897,0.5896,0.579,0.5788,0.5785,0.5803,0,0,0.5777,0.5776,0,0,0,0,0,0,0,0,0.6141,0.6133,0.6046,0.604,0.6033,0.5959,0.5994,0.593,0.5901,0.595,0.5897,0.5895,0.5847,0.5839,0.5824,0.5798,0.5794,0.5776,0.5775,0.5774,0.5773,0,0,0,0,0,0,0,0.6145,0.6136,0.6057,0.6045,0.6037,0.6013,0.6001,0.5981,0.5909,0.5945,0.5938,0.5928,0.5843,0.5827,0.5821,0.5792,0.5777,0.5774,0.5772,0.5771,0.5779,0.5781,0,0,0,0,0,0,0.616,0.6141,0.606,0.6054,0.6084,0.6012,0.5999,0.5985,0.5909,0.5896,0.5929,0.5924,0.5832,0.5824,0.5817,0.5835,0.5774,0.5771,0.577,0.5777,0.578,0.5782,0,0,0,0,0,0,0.6163,0.6154,0.6064,0.6096,0.6083,0.6012,0.5997,0.5984,0.5968,0.5897,0.5883,0.5927,0.5831,0.582,0.5808,0.583,0.577,0.5768,0.5775,0.5778,0.5781,0.5872,0,0,0,0,0,0,0.6166,0.6155,0.6162,0.6097,0.6081,0.6059,0.5998,0.5983,0.5964,0.5956,0.5891,0.5879,0.5828,0.5813,0.5806,0.5826,0.5765,0.5773,0.5777,0.578,0.5867,0.5878,0.5887,0,0,0,0,0,0.617,0.619,0.6163,0.6154,0.6088,0.606,0.6051,0.5995,0.5966,0.5972,0.5927,0.5881,0.5829,0.5813,0.5804,0.5823,0.5771,0.5776,0.578,0.5862,0.5876,0.5887,0,0,0,0,0,0,0.6257,0.618,0.6149,0.6148,0.6112,0.6045,0.605,0.601,0.598,0.5973,0.5903,0.5889,0.5885,0.5852,0.5835,0.5838,0.5794,0.5797,0.586,0.5872,0.5882,0.589,0.5763,0,0,0,0,0,0.6276,0.6261,0.6194,0.62,0.6184,0.6121,0.6106,0.6066,0.6025,0.6008,0.5962,0.5923,0.5898,0.5883,0.5856,0.5862,0.5847,0.5871,0.5881,0.5889,0.5893,0.5896,0.5906,0.5795,0.5795,0.5795,0,0,0.6315,0.6271,0.6266,0.6216,0.6183,0.6169,0.6108,0.6094,0.6083,0.6006,0.5993,0.5958,0.5909,0.5908,0.5904,0.588,0.592,0.5895,0.5902,0.59,0.5901,0.5912,0.5921,0.5798,0.5797,0.5797,0,0,0.6379,0.6344,0.6347,0.6316,0.6268,0.6227,0.6228,0.6167,0.6142,0.6128,0.6071,0.6056,0.6014,0.5983,0.5961,0.6018,0.5975,0.6011,0.6063,0.6068,0.6076,0.6084,0.6106,0.6115,0.6014,0.6014,0.6014,0,0.6433,0.6411,0.6352,0.6344,0.6325,0.6257,0.6259,0.6231,0.6177,0.6165,0.6139,0.6088,0.6049,0.6041,0.6055,0.6039,0.6039,0.6018,0.608,0.6087,0.6093,0.6113,0.6122,0.6019,0.6019,0.6018,0.6018,0,0.6481,0.6466,0.6474,0.6426,0.6407,0.6404,0.6345,0.6333,0.6296,0.6257,0.6245,0.6198,0.6162,0.6157,0.6118,0.6143,0.613,0.6093,0.6047,0.611,0.6128,0.6135,0.6026,0.6024,0.6023,0.6022,0,0,0.6595,0.6518,0.6522,0.6501,0.6444,0.6431,0.6426,0.6393,0.6385,0.635,0.6344,0.6312,0.6279,0.6255,0.6212,0.6216,0.6267,0.6179,0.6176,0.6198,0.6294,0.6324,0.6334,0.6238,0.6239,0.624,0.6299,0,0.6651,0.6639,0.6588,0.659,0.6577,0.6514,0.6509,0.6474,0.6439,0.6422,0.6381,0.6361,0.6317,0.6303,0.6304,0.6261,0.6286,0.6256,0.6232,0.6232,0.6248,0.6343,0.6373,0.6431,0.6306,0.6307,0.6308,0,0.6714,0.6687,0.6689,0.6637,0.6629,0.6626,0.6594,0.6578,0.6538,0.6512,0.6487,0.6441,0.6432,0.639,0.6377,0.6358,0.6345,0.6323,0.6324,0.632,0.6274,0.6343,0.6447,0.6457,0.6318,0.6317,0.6316,0,0.68,0.6763,0.6761,0.6744,0.6682,0.6682,0.6656,0.6614,0.6599,0.657,0.6559,0.6529,0.6512,0.649,0.6437,0.6411,0.6431,0.6384,0.641,0.6412,0.6417,0.6418,0.6523,0.6407,0.6407,0.6407,0.6407,0,0.6868,0.6872,0.6799,0.6798,0.6801,0.6743,0.6747,0.6715,0.6679,0.667,0.6613,0.6606,0.6536,0.6521,0.648,0.6477,0.6469,0.6448,0.6437,0.6454,0.6457,0.6445,0.644,0.6409,0.6409,0.6408,0.6408,0,0.6964,0.6915,0.6909,0.6852,0.6838,0.6843,0.6794,0.6791,0.6753,0.6743,0.6737,0.6677,0.6657,0.6603,0.6567,0.6539,0.6549,0.6527,0.6563,0.6557,0.6587,0.6586,0.6689,0.67,0.6577,0.6578,0.6579,0,0.7011,0.7014,0.6959,0.695,0.6928,0.6913,0.6899,0.6841,0.6828,0.6785,0.6787,0.6763,0.674,0.6711,0.6664,0.6637,0.6616,0.6654,0.6611,0.6629,0.6619,0.662,0.6621,0.6663,0.6665,0.6666,0.6667,0,0.7101,0.7078,0.706,0.7034,0.7019,0.6995,0.6968,0.6964,0.69,0.6888,0.6868,0.6851,0.6818,0.6795,0.6762,0.6733,0.6691,0.6682,0.6687,0.6704,0.6726,0.6717,0.6591,0.6679,0.6678,0.6677,0.6676,0.6676,0.7175,0.7176,0.7139,0.7121,0.7096,0.7073,0.7068,0.7031,0.7014,0.6984,0.6951,0.6935,0.6897,0.6849,0.6824,0.6811,0.6788,0.6795,0.6797,0.68,0.6809,0.6728,0.6805,0.6804,0.6804,0.6803,0.6803,0,0.7264,0.7238,0.7223,0.7189,0.7175,0.7138,0.7107,0.7098,0.7086,0.7055,0.7036,0.7015,0.6993,0.6946,0.692,0.6919,0.6899,0.6914,0.6914,0.6909,0.6829,0.6829,0.6931,0.6931,0.6931,0.6931,0.6931,0.6931,0.7309,0.7309,0.7282,0.727,0.7243,0.7229,0.7215,0.7194,0.717,0.7149,0.7132,0.7103,0.7065,0.7037,0.7016,0.7003,0.6997,0.7019,0.7,0.6926,0.6914,0.6903,0.6902,0.7018,0.7018,0.7081,0.7081,0.7082]}]]